Skip Page Navigation
NASA JPL Caltech
NASA Logo - Jet Propulsion Laboratory + View the NASA Portal
+ Near-Earth Object (NEO) Program
Search JPL
JPL Home Earth Solar System Stars & Galaxies Technology
JPL Solar System Dynamics
BODIES ORBITS EPHEMERIDES TOOLS PHYSICAL DATA DISCOVERY FAQ SITE MAP
JPL Small-Body Database Browser
Search: [ help ]  
4545 Primolevi (1989 SB11)
Classification: Main-belt Asteroid          SPK-ID: 2004545
Ephemeris | Orbit Diagram | Orbital Elements | Physical Parameters | Discovery Circumstances | Close-Approach Data ]

[ show orbit diagram ]
Orbital Elements at Epoch 2457000.5 (2014-Dec-09.0) TDB
Reference: JPL 11 (heliocentric ecliptic J2000)
 Element Value Uncertainty (1-sigma)   Units 
e .1368840685526165 4.6459e-08  
a 3.143003359478959 2.8314e-08 AU
q 2.712776272158937 1.4244e-07 AU
i 1.805412334612349 5.9404e-06 deg
node 36.7321147955525 0.00016135 deg
peri 71.1638552041143 0.00016324 deg
M 124.0173144261923 2.4662e-05 deg
tp 2456299.374897547618
(2013-Jan-06.87489755)
0.00013625 JED
period 2035.240305361344
5.57
2.7502e-05
7.53e-08
d
yr
n .1768832894335219 2.3902e-09 deg/d
Q 3.573230446798981 3.2189e-08 AU
  Orbit Determination Parameters
   # obs. used (total)      1322  
   data-arc span      22797 days (62.41 yr)  
   first obs. used      1952-01-30  
   last obs. used      2014-06-30  
   planetary ephem.      DE431  
   SB-pert. ephem.      SB431-BIG16  
   condition code      0  
   fit RMS      .47852  
   data source      ORB  
   producer      Otto Matic  
   solution date      2014-Aug-13 14:03:52  

Additional Information
 Earth MOID = 1.73015 AU 
 T_jup = 3.195 
[ show covariance matrix ]

Ephemeris | Orbit Diagram | Orbital Elements | Physical Parameters | Discovery Circumstances | Close-Approach Data ]

Physical Parameter Table
Parameter Symbol Value Units Sigma Reference Notes
absolute magnitude H 12.1 mag n/a MPO253394  

4545 Primolevi           Discovered 1989 Sept. 28 by H. Debehogne at the European Southern Observatory.
Primo Levi (1919-1987) was an Italian chemist and writer. He was the author of two novels and several collections of short stories, essays and poems. His best-known work is If this is a man, his account of the period he spent as a prisoner in Auschwitz concentration camp. Name suggested by M. Di Martino and P. Bianucci.
NOTE: some special characters may not display properly (any characters within {} are an attempt to place the proper accent above a character)
Reference: 20111012/MPCPages.arcLast Updated: 2011-10-13

[ show close-approach data ]
Alternate Designations
 1989 SB11 = 1952 BG2 = 1969 EE2 = 1978 SV5 = 1978 UN3 = 1980 EP 
Ephemeris | Orbit Diagram | Orbital Elements | Physical Parameters | Discovery Circumstances | Close-Approach Data ]
ABOUT SSD CREDITS/AWARDS PRIVACY/COPYRIGHT GLOSSARY LINKS
FirstGov 2014-Aug-29 18:22 UT
(server date/time)  
NASA Home Page
Site Manager:   Donald K. Yeomans
Webmaster  Alan B. Chamberlin